Back to catalog

FREGAT NO. 142-602

AlivePO
NORAD 67248·ROCKET BODY·🇷🇺 Russia
This satellite name has not been confirmed by official sources yet.

Launched Dec 28, 2025 from Vostochny Cosmodrome

Loading…

Next Passes (next 24 hours)

TLE

FreshSource: Space-Track

Epoch: Sep 14, 2026, 14:12 UTC

1 67248U 25313A   26257.59204889  .00000995  00000-0  10349-3 0  9991
2 67248  97.5335 314.9793 0277938  49.6263 312.8851 14.67454683 38134

Track FREGAT NO. 142-602 in real time with AllMySat

Download on the App Store